Weather in Panajachel

Guatemala     14°44′34″N   91°09′23″W
temp.,
°C
wind,
m/s
gust,
m/s
humid.,
%
clouds,
%
prec.,
mm/h
press.,
hPa
HPBL,
m
2 july, sat
sat200:00+12nne3594100 0.0 1018108
03:00+10nne4485100 0.0 101778
06:00+11n447698 0.0 101869
09:00+19ne235493 0.0 1015700
12:00+22se1449100 0.0 10131689
15:00+18se128097 2.7 1012687
18:00+16ene129597 6.6 101497
21:00+14nne3497100 4.1 1016128
3 july, sun
sun300:00+13nne349761 5.9 1016166
03:00+12nne339495 0.0 101649
06:00+13nne349181 0.0 101693
09:00+17ene237497 0.1 1016727
12:00+15ne1294100 1.1 1016223
15:00+15ene229590 0.8 1015185
18:00+14ene2298100 3.9 101797
21:00+14ne2498100 5.0 1018146
4 july, mon
mon400:00+13ne2398100 8.1 1019106
03:00+12nne239799 1.0 101770
06:00+13nne239699 2.3 101891
09:00+16ne128795 0.2 1018255
12:00+18sse2285100 2.0 1017738
15:00+18ese238655 4.0 1015691
18:00+15e1292100 5.1 1016100
21:00+12nne2297100 1.1 102046
5 july, tue
tue500:00+12nne3396100 1.1 102062
03:00+11n3394100 0.0 101855
06:00+11n3385100 0.0 101856
09:00+19ene124998 0.0 1016699
12:00+22s2352100 0.0 10151535
15:00+18sse118368 2.9 1014631
18:00+16ene129473 5.8 101481
21:00+13nne2295100 2.6 101740
6 july, wed
wed600:00+13nne2397100 4.2 101789
03:00+13n1297100 1.6 101556
06:00+13nne239490 1.7 101667
09:00+18e137098 0.1 1015807
12:00+18sse228098 1.5 1014854
15:00+16e129199 3.9 1013471
18:00+14ene1298100 7.1 1014107
21:00+14nne2397100 2.3 1016145